TimeCDT,TemperatureF,Dew PointF,Humidity,Sea Level PressureIn,VisibilityMPH,Wind Direction,Wind SpeedMPH,Gust SpeedMPH,PrecipitationIn,Events,Conditions,WindDirDegrees,DateUTC
12:12 AM,35.6,35.6,100,29.91,10.0,NNE,4.6,-,N/A,,Drizzle,30,2012-10-11 05:12:00
12:33 AM,35.6,35.6,100,29.92,10.0,Calm,Calm,-,N/A,,Light Drizzle,0,2012-10-11 05:33:00
12:53 AM,35.6,35.6,100,29.92,10.0,North,4.6,-,N/A,,Mostly Cloudy,360,2012-10-11 05:53:00
1:12 AM,35.6,35.6,100,29.93,10.0,North,11.5,17.3,N/A,,Mostly Cloudy,350,2012-10-11 06:12:00
1:33 AM,35.6,35.6,100,29.93,10.0,North,10.4,-,N/A,,Overcast,350,2012-10-11 06:33:00
1:53 AM,35.6,35.6,100,29.93,10.0,North,5.8,-,N/A,,Overcast,360,2012-10-11 06:53:00
2:12 AM,35.6,33.8,93,29.94,10.0,North,6.9,-,N/A,,Overcast,360,2012-10-11 07:12:00
2:33 AM,33.8,33.8,100,29.96,10.0,North,10.4,-,N/A,,Mostly Cloudy,350,2012-10-11 07:33:00
2:53 AM,33.8,33.8,100,29.96,10.0,North,10.4,16.1,N/A,,Overcast,350,2012-10-11 07:53:00
3:12 AM,33.8,33.8,100,29.97,10.0,North,10.4,-,N/A,,Overcast,350,2012-10-11 08:12:00
3:33 AM,33.8,33.8,100,29.98,7.0,NNW,11.5,-,N/A,,Overcast,340,2012-10-11 08:33:00
3:53 AM,33.8,33.8,100,30.00,7.0,NNW,9.2,-,N/A,,Overcast,330,2012-10-11 08:53:00
4:12 AM,33.8,33.8,100,30.00,7.0,NNW,11.5,17.3,N/A,,Overcast,340,2012-10-11 09:12:00
4:33 AM,33.8,33.8,100,30.02,7.0,NNW,9.2,16.1,N/A,,Overcast,340,2012-10-11 09:33:00
4:53 AM,33.8,33.8,100,30.02,7.0,NNW,11.5,-,N/A,,Overcast,340,2012-10-11 09:53:00
5:12 AM,33.8,33.8,100,30.03,10.0,NNW,11.5,-,N/A,,Overcast,340,2012-10-11 10:12:00
5:33 AM,33.8,33.8,100,30.03,10.0,North,16.1,-,N/A,,Overcast,350,2012-10-11 10:33:00
5:53 AM,33.8,33.8,100,30.05,10.0,NNW,12.7,-,N/A,,Scattered Clouds,340,2012-10-11 10:53:00
6:12 AM,33.8,32.0,93,30.06,10.0,NNW,10.4,-,N/A,,Clear,340,2012-10-11 11:12:00
6:33 AM,33.8,32.0,93,30.07,10.0,North,9.2,-,N/A,,Clear,350,2012-10-11 11:33:00
6:53 AM,32.0,32.0,100,30.08,10.0,North,10.4,-,N/A,,Clear,350,2012-10-11 11:53:00
7:12 AM,32.0,32.0,100,30.09,10.0,NNW,6.9,-,N/A,,Clear,340,2012-10-11 12:12:00
7:33 AM,32.0,32.0,100,30.11,10.0,NNW,8.1,-,N/A,,Clear,330,2012-10-11 12:33:00
7:53 AM,32.0,32.0,100,30.12,10.0,NNW,6.9,-,N/A,,Clear,330,2012-10-11 12:53:00
8:12 AM,32.0,32.0,100,30.13,10.0,NNW,6.9,-,N/A,,Clear,340,2012-10-11 13:12:00
8:33 AM,32.0,32.0,100,30.15,10.0,NW,6.9,-,N/A,,Clear,320,2012-10-11 13:33:00
8:53 AM,32.0,32.0,100,30.16,10.0,NNW,8.1,-,N/A,,Clear,330,2012-10-11 13:53:00
9:12 AM,32.0,32.0,100,30.17,10.0,NNW,8.1,-,N/A,,Clear,330,2012-10-11 14:12:00
9:33 AM,33.8,32.0,93,30.18,10.0,NNW,10.4,-,N/A,,Clear,330,2012-10-11 14:33:00
9:53 AM,33.8,32.0,93,30.19,10.0,NNW,11.5,-,N/A,,Clear,330,2012-10-11 14:53:00
10:12 AM,33.8,32.0,93,30.20,10.0,NNW,10.4,-,N/A,,Clear,330,2012-10-11 15:12:00
10:33 AM,33.8,32.0,93,30.21,10.0,NNW,11.5,18.4,N/A,,Scattered Clouds,330,2012-10-11 15:33:00
10:52 AM,35.6,32.0,87,30.22,10.0,NW,11.5,-,N/A,,Scattered Clouds,320,2012-10-11 15:52:00
11:13 AM,35.6,32.0,87,30.23,10.0,NW,11.5,-,N/A,,Scattered Clouds,320,2012-10-11 16:13:00
11:33 AM,35.6,32.0,87,30.24,10.0,NW,11.5,-,N/A,,Scattered Clouds,320,2012-10-11 16:33:00
11:53 AM,35.6,32.0,87,30.24,10.0,NNW,10.4,-,N/A,,Scattered Clouds,330,2012-10-11 16:53:00
12:13 PM,35.6,30.2,81,30.24,10.0,NNW,11.5,18.4,N/A,,Scattered Clouds,330,2012-10-11 17:13:00
12:53 PM,39.2,28.4,65,30.25,10.0,NNW,13.8,23.0,N/A,,Scattered Clouds,330,2012-10-11 17:53:00
1:13 PM,37.4,28.4,70,30.25,10.0,NW,13.8,20.7,N/A,,Scattered Clouds,320,2012-10-11 18:13:00
1:33 PM,37.4,28.4,70,30.25,10.0,NNW,12.7,21.9,N/A,,Scattered Clouds,330,2012-10-11 18:33:00
1:53 PM,41.0,28.4,61,30.25,10.0,NW,16.1,21.9,N/A,,Scattered Clouds,320,2012-10-11 18:53:00
2:13 PM,41.0,28.4,61,30.25,10.0,NNW,15.0,24.2,N/A,,Mostly Cloudy,330,2012-10-11 19:13:00
2:33 PM,41.0,26.6,57,30.26,10.0,NNW,16.1,21.9,N/A,,Scattered Clouds,330,2012-10-11 19:33:00
2:53 PM,42.8,26.6,53,30.26,10.0,NNW,15.0,23.0,N/A,,Scattered Clouds,330,2012-10-11 19:53:00
3:13 PM,41.0,26.6,57,30.27,10.0,NW,13.8,-,N/A,,Scattered Clouds,320,2012-10-11 20:13:00
3:33 PM,41.0,26.6,57,30.27,10.0,NNW,10.4,21.9,N/A,,Scattered Clouds,330,2012-10-11 20:33:00
3:53 PM,39.2,26.6,61,30.27,10.0,NNW,13.8,19.6,N/A,,Scattered Clouds,340,2012-10-11 20:53:00
4:13 PM,42.8,24.8,49,30.27,10.0,NNW,13.8,-,N/A,,Clear,340,2012-10-11 21:13:00
4:32 PM,41.0,26.6,57,30.28,10.0,NW,11.5,18.4,N/A,,Clear,320,2012-10-11 21:32:00
5:13 PM,41.0,26.6,57,30.29,10.0,NNW,15.0,19.6,N/A,,Mostly Cloudy,330,2012-10-11 22:13:00
5:32 PM,41.0,26.6,57,30.30,10.0,NNW,13.8,19.6,N/A,,Scattered Clouds,330,2012-10-11 22:32:00
5:53 PM,37.4,26.6,65,30.31,10.0,NW,12.7,-,N/A,,Scattered Clouds,310,2012-10-11 22:53:00
6:13 PM,37.4,26.6,65,30.31,10.0,NNW,10.4,-,N/A,,Scattered Clouds,330,2012-10-11 23:13:00
6:32 PM,37.4,26.6,65,30.32,10.0,NNW,8.1,-,N/A,,Clear,330,2012-10-11 23:32:00
6:52 PM,35.6,26.6,70,30.32,10.0,NNW,6.9,-,N/A,,Clear,330,2012-10-11 23:52:00
7:13 PM,33.8,26.6,75,30.32,10.0,NNW,5.8,-,N/A,,Clear,330,2012-10-12 00:13:00
7:33 PM,33.8,26.6,75,30.33,10.0,NNW,5.8,-,N/A,,Clear,330,2012-10-12 00:33:00
7:53 PM,33.8,26.6,75,30.33,10.0,NNW,4.6,-,N/A,,Clear,330,2012-10-12 00:53:00
8:13 PM,33.8,28.4,81,30.34,10.0,North,3.5,-,N/A,,Clear,360,2012-10-12 01:13:00
8:33 PM,33.8,26.6,75,30.34,10.0,North,3.5,-,N/A,,Clear,360,2012-10-12 01:33:00
8:53 PM,33.8,28.4,81,30.36,10.0,Calm,Calm,-,N/A,,Clear,0,2012-10-12 01:53:00
9:13 PM,32.0,26.6,80,30.36,10.0,NNE,4.6,-,N/A,,Clear,20,2012-10-12 02:13:00
9:33 PM,32.0,26.6,80,30.36,10.0,North,3.5,-,N/A,,Clear,10,2012-10-12 02:33:00
9:53 PM,32.0,26.6,80,30.36,10.0,Calm,Calm,-,N/A,,Clear,0,2012-10-12 02:53:00
10:33 PM,32.0,26.6,80,30.38,10.0,Calm,Calm,-,N/A,,Clear,0,2012-10-12 03:33:00
10:53 PM,30.2,24.8,80,30.38,10.0,Calm,Calm,-,N/A,,Clear,0,2012-10-12 03:53:00
11:13 PM,30.2,26.6,86,30.39,10.0,Calm,Calm,-,N/A,,Clear,0,2012-10-12 04:13:00
11:32 PM,30.2,26.6,86,30.39,10.0,Calm,Calm,-,N/A,,Clear,0,2012-10-12 04:32:00
11:53 PM,30.2,28.4,93,30.39,10.0,Calm,Calm,-,N/A,,Clear,0,2012-10-12 04:53:00